Home > Products > State Listing > Puerto Rico Data
Latest:
 RWRPR |
  [top]

000
ASCA42 TJSJ 292310
RWRPR
PUERTO RICO/U.S. VIRGIN ISLANDS HOURLY WEATHER ROUNDUP
NATIONAL WEATHER SERVICE SAN JUAN PR
700 PM AST WED JUN 29 2016

PRZ001-004-300000-
PUERTO RICO

CITY           SKY/WX    TMP DP  RH WIND       PRES   REMARKS
SAN JUAN LMM   PTCLDY    84  73  70 E14       30.04R HX  91
AGUADILLA      CLEAR     82  73  74 E7        30.04S
$$

PRZ006-007-300000-
U.S. VIRGIN ISLANDS

CITY           SKY/WX    TMP DP  RH WIND       PRES   REMARKS
CHARLOTTE AMA  CLEAR     84  75  74 E12       30.04R HX  92
CHRISTIANSTED  PTCLDY    82  72  69 E15       30.04R
$$

HOURLY WEATHER ROUNDUP FOR THE NEWS MEDIA

CITY           SKY/WX    TMP DP  RH WIND       PRES   REMARKS
ORLANDO        CLOUDY    83  73  72 S8        29.97R
NEW YORK       MOSUNNY   86  53  32 NW9       29.87R
NEWARK         MOSUNNY   83  57  41 NW12      29.87R
CHICAGO        PTSUNNY   74  47  38 E12       30.05F
HARTFORD       MOSUNNY   74  67  78 SW9       29.85S
BOSTON         PTSUNNY   74  63  68 SE9       29.83R
DALLAS         MOSUNNY   93  66  40 SE12      29.96S HX  96
PHILADELPHIA   MOSUNNY   82  53  36 W12       29.90S
LOS ANGELES    MOSUNNY   72  61  68 W14       29.87F
WASHINGTON DC  FAIR      79  54  41 N13       29.96S




000
ASCA42 TJSJ 292210
RWRPR
PUERTO RICO/U.S. VIRGIN ISLANDS HOURLY WEATHER ROUNDUP
NATIONAL WEATHER SERVICE SAN JUAN PR
600 PM AST WED JUN 29 2016

PRZ001-004-292300-
PUERTO RICO

CITY           SKY/WX    TMP DP  RH WIND       PRES   REMARKS
SAN JUAN LMM   MOSUNNY   86  72  62 E15       30.03R HX  92
AGUADILLA      PTSUNNY   82  73  74 E10       30.04R
$$

PRZ006-007-292300-
U.S. VIRGIN ISLANDS

CITY           SKY/WX    TMP DP  RH WIND       PRES   REMARKS
CHARLOTTE AMA  MOSUNNY   86  75  70 SE14      30.02S HX  95
CHRISTIANSTED  MOSUNNY   84  73  70 E13       30.03S HX  91
$$

HOURLY WEATHER ROUNDUP FOR THE NEWS MEDIA

CITY           SKY/WX    TMP DP  RH WIND       PRES   REMARKS
ORLANDO        CLOUDY    83  73  72 SW6       29.96S
NEW YORK       MOSUNNY   87  52  29 W15G21    29.85F
NEWARK         PTSUNNY   84  57  39 NW14      29.86S
CHICAGO        PTSUNNY   75  49  39 SE8       30.07F
HARTFORD       PTSUNNY   73  67  81 S12       29.85S
BOSTON         PTSUNNY   78  61  55 SE6       29.82
DALLAS         PTSUNNY   93  66  40 SE10      29.96F HX  96
PHILADELPHIA   MOSUNNY   83  55  38 NW15      29.90S
LOS ANGELES    MOSUNNY   73  62  68 SW13      29.88F
WASHINGTON DC  FAIR      80  53  39 N14G21    29.96F




000
ASCA42 TJSJ 292110
RWRPR
PUERTO RICO/U.S. VIRGIN ISLANDS HOURLY WEATHER ROUNDUP
NATIONAL WEATHER SERVICE SAN JUAN PR
500 PM AST WED JUN 29 2016

PRZ001-004-292200-
PUERTO RICO

CITY           SKY/WX    TMP DP  RH WIND       PRES   REMARKS
SAN JUAN LMM   MOSUNNY   88  72  58 E20       30.01S HX  94
AGUADILLA      PTSUNNY   82  75  78 E10       30.03S
$$

PRZ006-007-292200-
U.S. VIRGIN ISLANDS

CITY           SKY/WX    TMP DP  RH WIND       PRES   REMARKS
CHARLOTTE AMA  MOSUNNY   88  75  66 SE16      30.02S HX  97
CHRISTIANSTED  MOSUNNY   88  75  66 SE14      30.03S HX  97
$$

HOURLY WEATHER ROUNDUP FOR THE NEWS MEDIA

CITY           SKY/WX    TMP DP  RH WIND       PRES   REMARKS
ORLANDO        CLOUDY    82  76  81 E13       29.97S THUNDER
NEW YORK       PTSUNNY   89  54  30 W13       29.87R
NEWARK         PTSUNNY   86  54  33 W13       29.86S
CHICAGO        PTSUNNY   77  50  38 E13       30.08F
HARTFORD       MOSUNNY   77  69  76 S8        29.84S
BOSTON         PTSUNNY   75  63  64 NW7G24    29.83  THUNDER
DALLAS         PTSUNNY   92  64  39 E5        29.99S HX  93
PHILADELPHIA   MOSUNNY   84  55  36 NW10      29.90S
LOS ANGELES    MOSUNNY   73  63  70 W15       29.90F
WASHINGTON DC  FAIR      80  53  39 NW13      29.97S




000
ASCA42 TJSJ 292110
RWRPR
PUERTO RICO/U.S. VIRGIN ISLANDS HOURLY WEATHER ROUNDUP
NATIONAL WEATHER SERVICE SAN JUAN PR
500 PM AST WED JUN 29 2016

PRZ001-004-292200-
PUERTO RICO

CITY           SKY/WX    TMP DP  RH WIND       PRES   REMARKS
SAN JUAN LMM   MOSUNNY   88  72  58 E20       30.01S HX  94
AGUADILLA      PTSUNNY   82  75  78 E10       30.03S
$$

PRZ006-007-292200-
U.S. VIRGIN ISLANDS

CITY           SKY/WX    TMP DP  RH WIND       PRES   REMARKS
CHARLOTTE AMA  MOSUNNY   88  75  66 SE16      30.02S HX  97
CHRISTIANSTED  MOSUNNY   88  75  66 SE14      30.03S HX  97
$$

HOURLY WEATHER ROUNDUP FOR THE NEWS MEDIA

CITY           SKY/WX    TMP DP  RH WIND       PRES   REMARKS
ORLANDO        CLOUDY    82  76  81 E13       29.97S THUNDER
NEW YORK       PTSUNNY   89  54  30 W13       29.87R
NEWARK         PTSUNNY   86  54  33 W13       29.86S
CHICAGO        PTSUNNY   77  50  38 E13       30.08F
HARTFORD       MOSUNNY   77  69  76 S8        29.84S
BOSTON         PTSUNNY   75  63  64 NW7G24    29.83  THUNDER
DALLAS         PTSUNNY   92  64  39 E5        29.99S HX  93
PHILADELPHIA   MOSUNNY   84  55  36 NW10      29.90S
LOS ANGELES    MOSUNNY   73  63  70 W15       29.90F
WASHINGTON DC  FAIR      80  53  39 NW13      29.97S




000
ASCA42 TJSJ 292010
RWRPR
PUERTO RICO/U.S. VIRGIN ISLANDS HOURLY WEATHER ROUNDUP
NATIONAL WEATHER SERVICE SAN JUAN PR
400 PM AST WED JUN 29 2016

PRZ001-004-292100-
PUERTO RICO

CITY           SKY/WX    TMP DP  RH WIND       PRES   REMARKS
SAN JUAN LMM   MOSUNNY   88  70  55 E20G26    30.01F HX  92
AGUADILLA      CLOUDY    84  75  74 E6        30.03S HX  92
$$

PRZ006-007-292100-
U.S. VIRGIN ISLANDS

CITY           SKY/WX    TMP DP  RH WIND       PRES   REMARKS
CHARLOTTE AMA  MOSUNNY   88  75  66 SE14      30.02F HX  97
CHRISTIANSTED  MOSUNNY   88  73  62 E17       30.03F HX  96
$$

HOURLY WEATHER ROUNDUP FOR THE NEWS MEDIA

CITY           SKY/WX    TMP DP  RH WIND       PRES   REMARKS
ORLANDO        PTSUNNY   91  71  51 NW9       29.96S HX  97
NEW YORK       MOSUNNY   87  56  34 W12       29.86S
NEWARK         PTSUNNY   86  57  37 W16       29.86S
CHICAGO        PTSUNNY   80  48  32 NE6       30.09F
HARTFORD       PTSUNNY   78  68  71 S10       29.84S
BOSTON         MOSUNNY   85  61  44 VRB6      29.80F
DALLAS         PTSUNNY   93  65  39 E14G20    29.99F HX  95
PHILADELPHIA   MOSUNNY   84  56  38 W14G24    29.90R
LOS ANGELES    MOSUNNY   74  63  68 W13       29.91S
WASHINGTON DC  FAIR      80  55  42 NW10G23   29.97R




000
ASCA42 TJSJ 291910
RWRPR
PUERTO RICO/U.S. VIRGIN ISLANDS HOURLY WEATHER ROUNDUP
NATIONAL WEATHER SERVICE SAN JUAN PR
300 PM AST WED JUN 29 2016

PRZ001-004-292000-
PUERTO RICO

CITY           SKY/WX    TMP DP  RH WIND       PRES   REMARKS
SAN JUAN LMM   MOSUNNY   90  72  55 E17       30.02F HX  96
AGUADILLA      PTSUNNY   86  75  70 E14       30.03F HX  95
$$

PRZ006-007-292000-
U.S. VIRGIN ISLANDS

CITY           SKY/WX    TMP DP  RH WIND       PRES   REMARKS
CHARLOTTE AMA  SUNNY     90  75  62 E18G25    30.03F HX 100
CHRISTIANSTED  MOSUNNY   90  73  58 SE14      30.04F HX  98
$$

HOURLY WEATHER ROUNDUP FOR THE NEWS MEDIA

CITY           SKY/WX    TMP DP  RH WIND       PRES   REMARKS
ORLANDO        MOSUNNY   92  71  50 CALM      29.96F HX  98
NEW YORK       MOSUNNY   87  57  35 W12G18    29.86S
NEWARK         MOSUNNY   86  58  38 NW14      29.86S
CHICAGO        MOSUNNY   77  48  35 CALM      30.10F
HARTFORD       MOSUNNY   80  68  66 S10       29.84F
BOSTON         MOSUNNY   84  65  52 SW8G16    29.81F
DALLAS         PTSUNNY   91  66  43 E9        30.01F HX  93
PHILADELPHIA   MOSUNNY   84  58  40 NW12      29.89R
LOS ANGELES    MOSUNNY   73  63  70 W9        29.91F
WASHINGTON DC  FAIR      80  54  40 NW14      29.96S




000
ASCA42 TJSJ 291810
RWRPR
PUERTO RICO/U.S. VIRGIN ISLANDS HOURLY WEATHER ROUNDUP
NATIONAL WEATHER SERVICE SAN JUAN PR
200 PM AST WED JUN 29 2016

PRZ001-004-291900-
PUERTO RICO

CITY           SKY/WX    TMP DP  RH WIND       PRES   REMARKS
SAN JUAN LMM   MOSUNNY   90  73  58 SE10      30.03F HX  98
AGUADILLA      PTSUNNY   82  73  74 E13       30.05S
$$

PRZ006-007-291900-
U.S. VIRGIN ISLANDS

CITY           SKY/WX    TMP DP  RH WIND       PRES   REMARKS
CHARLOTTE AMA  SUNNY     90  75  62 SE17G24   30.04F HX 100
CHRISTIANSTED  MOSUNNY   90  72  55 E18       30.05F HX  96
$$

HOURLY WEATHER ROUNDUP FOR THE NEWS MEDIA

CITY           SKY/WX    TMP DP  RH WIND       PRES   REMARKS
ORLANDO        MOSUNNY   91  71  51 VRB5      29.98F HX  97
NEW YORK       MOSUNNY   85  59  41 NW9G17    29.86F
NEWARK         MOSUNNY   83  61  47 N10       29.86F
CHICAGO        MOSUNNY   76  48  37 NE6       30.11F
HARTFORD       PTSUNNY   80  68  66 S12       29.85S
BOSTON         MOSUNNY   83  67  58 S13       29.82F
DALLAS         PTSUNNY   91  69  48 CALM      30.02F HX  96
PHILADELPHIA   MOSUNNY   83  58  42 W8G20     29.88F
LOS ANGELES    MOSUNNY   73  64  73 W8        29.92S HAZE
WASHINGTON DC  FAIR      79  54  41 W17       29.96F




000
ASCA42 TJSJ 291810
RWRPR
PUERTO RICO/U.S. VIRGIN ISLANDS HOURLY WEATHER ROUNDUP
NATIONAL WEATHER SERVICE SAN JUAN PR
200 PM AST WED JUN 29 2016

PRZ001-004-291900-
PUERTO RICO

CITY           SKY/WX    TMP DP  RH WIND       PRES   REMARKS
SAN JUAN LMM   MOSUNNY   90  73  58 SE10      30.03F HX  98
AGUADILLA      PTSUNNY   82  73  74 E13       30.05S
$$

PRZ006-007-291900-
U.S. VIRGIN ISLANDS

CITY           SKY/WX    TMP DP  RH WIND       PRES   REMARKS
CHARLOTTE AMA  SUNNY     90  75  62 SE17G24   30.04F HX 100
CHRISTIANSTED  MOSUNNY   90  72  55 E18       30.05F HX  96
$$

HOURLY WEATHER ROUNDUP FOR THE NEWS MEDIA

CITY           SKY/WX    TMP DP  RH WIND       PRES   REMARKS
ORLANDO        MOSUNNY   91  71  51 VRB5      29.98F HX  97
NEW YORK       MOSUNNY   85  59  41 NW9G17    29.86F
NEWARK         MOSUNNY   83  61  47 N10       29.86F
CHICAGO        MOSUNNY   76  48  37 NE6       30.11F
HARTFORD       PTSUNNY   80  68  66 S12       29.85S
BOSTON         MOSUNNY   83  67  58 S13       29.82F
DALLAS         PTSUNNY   91  69  48 CALM      30.02F HX  96
PHILADELPHIA   MOSUNNY   83  58  42 W8G20     29.88F
LOS ANGELES    MOSUNNY   73  64  73 W8        29.92S HAZE
WASHINGTON DC  FAIR      79  54  41 W17       29.96F




000
ASCA42 TJSJ 291710
RWRPR
PUERTO RICO/U.S. VIRGIN ISLANDS HOURLY WEATHER ROUNDUP
NATIONAL WEATHER SERVICE SAN JUAN PR
100 PM AST WED JUN 29 2016

PRZ001-004-291800-
PUERTO RICO

CITY           SKY/WX    TMP DP  RH WIND       PRES   REMARKS
SAN JUAN LMM   LGT RAIN  84  79  84 S6        30.05S HX  96
AGUADILLA      MOSUNNY   88  75  66 E9        30.05F HX  97
$$

PRZ006-007-291800-
U.S. VIRGIN ISLANDS

CITY           SKY/WX    TMP DP  RH WIND       PRES   REMARKS
CHARLOTTE AMA  SUNNY     90  75  62 SE18      30.05F HX 100
CHRISTIANSTED  MOSUNNY   90  73  58 SE17      30.06F HX  98
$$

HOURLY WEATHER ROUNDUP FOR THE NEWS MEDIA

CITY           SKY/WX    TMP DP  RH WIND       PRES   REMARKS
ORLANDO        MOSUNNY   91  72  53 W7        30.00F HX  98
NEW YORK       MOSUNNY   85  62  46 NW10      29.87F
NEWARK         MOSUNNY   82  63  52 W9        29.87F
CHICAGO        MOSUNNY   75  49  39 CALM      30.13S
HARTFORD       CLOUDY    79  68  69 SW13      29.85F
BOSTON         MOSUNNY   82  68  61 S12       29.83
DALLAS         PTSUNNY   89  70  53 CALM      30.04F HX  94
PHILADELPHIA   MOSUNNY   83  59  44 W13G18    29.89F
LOS ANGELES    MOSUNNY   73  64  73 W8        29.92F HAZE
WASHINGTON DC  FAIR      79  55  43 W17G24    29.97R




000
ASCA42 TJSJ 291710
RWRPR
PUERTO RICO/U.S. VIRGIN ISLANDS HOURLY WEATHER ROUNDUP
NATIONAL WEATHER SERVICE SAN JUAN PR
100 PM AST WED JUN 29 2016

PRZ001-004-291800-
PUERTO RICO

CITY           SKY/WX    TMP DP  RH WIND       PRES   REMARKS
SAN JUAN LMM   LGT RAIN  84  79  84 S6        30.05S HX  96
AGUADILLA      MOSUNNY   88  75  66 E9        30.05F HX  97
$$

PRZ006-007-291800-
U.S. VIRGIN ISLANDS

CITY           SKY/WX    TMP DP  RH WIND       PRES   REMARKS
CHARLOTTE AMA  SUNNY     90  75  62 SE18      30.05F HX 100
CHRISTIANSTED  MOSUNNY   90  73  58 SE17      30.06F HX  98
$$

HOURLY WEATHER ROUNDUP FOR THE NEWS MEDIA

CITY           SKY/WX    TMP DP  RH WIND       PRES   REMARKS
ORLANDO        MOSUNNY   91  72  53 W7        30.00F HX  98
NEW YORK       MOSUNNY   85  62  46 NW10      29.87F
NEWARK         MOSUNNY   82  63  52 W9        29.87F
CHICAGO        MOSUNNY   75  49  39 CALM      30.13S
HARTFORD       CLOUDY    79  68  69 SW13      29.85F
BOSTON         MOSUNNY   82  68  61 S12       29.83
DALLAS         PTSUNNY   89  70  53 CALM      30.04F HX  94
PHILADELPHIA   MOSUNNY   83  59  44 W13G18    29.89F
LOS ANGELES    MOSUNNY   73  64  73 W8        29.92F HAZE
WASHINGTON DC  FAIR      79  55  43 W17G24    29.97R




000
ASCA42 TJSJ 291710
RWRPR
PUERTO RICO/U.S. VIRGIN ISLANDS HOURLY WEATHER ROUNDUP
NATIONAL WEATHER SERVICE SAN JUAN PR
100 PM AST WED JUN 29 2016

PRZ001-004-291800-
PUERTO RICO

CITY           SKY/WX    TMP DP  RH WIND       PRES   REMARKS
SAN JUAN LMM   LGT RAIN  84  79  84 S6        30.05S HX  96
AGUADILLA      MOSUNNY   88  75  66 E9        30.05F HX  97
$$

PRZ006-007-291800-
U.S. VIRGIN ISLANDS

CITY           SKY/WX    TMP DP  RH WIND       PRES   REMARKS
CHARLOTTE AMA  SUNNY     90  75  62 SE18      30.05F HX 100
CHRISTIANSTED  MOSUNNY   90  73  58 SE17      30.06F HX  98
$$

HOURLY WEATHER ROUNDUP FOR THE NEWS MEDIA

CITY           SKY/WX    TMP DP  RH WIND       PRES   REMARKS
ORLANDO        MOSUNNY   91  72  53 W7        30.00F HX  98
NEW YORK       MOSUNNY   85  62  46 NW10      29.87F
NEWARK         MOSUNNY   82  63  52 W9        29.87F
CHICAGO        MOSUNNY   75  49  39 CALM      30.13S
HARTFORD       CLOUDY    79  68  69 SW13      29.85F
BOSTON         MOSUNNY   82  68  61 S12       29.83
DALLAS         PTSUNNY   89  70  53 CALM      30.04F HX  94
PHILADELPHIA   MOSUNNY   83  59  44 W13G18    29.89F
LOS ANGELES    MOSUNNY   73  64  73 W8        29.92F HAZE
WASHINGTON DC  FAIR      79  55  43 W17G24    29.97R




000
ASCA42 TJSJ 291710
RWRPR
PUERTO RICO/U.S. VIRGIN ISLANDS HOURLY WEATHER ROUNDUP
NATIONAL WEATHER SERVICE SAN JUAN PR
100 PM AST WED JUN 29 2016

PRZ001-004-291800-
PUERTO RICO

CITY           SKY/WX    TMP DP  RH WIND       PRES   REMARKS
SAN JUAN LMM   LGT RAIN  84  79  84 S6        30.05S HX  96
AGUADILLA      MOSUNNY   88  75  66 E9        30.05F HX  97
$$

PRZ006-007-291800-
U.S. VIRGIN ISLANDS

CITY           SKY/WX    TMP DP  RH WIND       PRES   REMARKS
CHARLOTTE AMA  SUNNY     90  75  62 SE18      30.05F HX 100
CHRISTIANSTED  MOSUNNY   90  73  58 SE17      30.06F HX  98
$$

HOURLY WEATHER ROUNDUP FOR THE NEWS MEDIA

CITY           SKY/WX    TMP DP  RH WIND       PRES   REMARKS
ORLANDO        MOSUNNY   91  72  53 W7        30.00F HX  98
NEW YORK       MOSUNNY   85  62  46 NW10      29.87F
NEWARK         MOSUNNY   82  63  52 W9        29.87F
CHICAGO        MOSUNNY   75  49  39 CALM      30.13S
HARTFORD       CLOUDY    79  68  69 SW13      29.85F
BOSTON         MOSUNNY   82  68  61 S12       29.83
DALLAS         PTSUNNY   89  70  53 CALM      30.04F HX  94
PHILADELPHIA   MOSUNNY   83  59  44 W13G18    29.89F
LOS ANGELES    MOSUNNY   73  64  73 W8        29.92F HAZE
WASHINGTON DC  FAIR      79  55  43 W17G24    29.97R




000
ASCA42 TJSJ 291610
RWRPR
PUERTO RICO/U.S. VIRGIN ISLANDS HOURLY WEATHER ROUNDUP
NATIONAL WEATHER SERVICE SAN JUAN PR
1200 PM AST WED JUN 29 2016

PRZ001-004-291700-
PUERTO RICO

CITY           SKY/WX    TMP DP  RH WIND       PRES   REMARKS
SAN JUAN LMM   LGT RAIN  88  75  66 E9G18     30.05F HX  97
AGUADILLA      LGT RAIN  84  73  70 E15G29    30.06S HX  91
$$

PRZ006-007-291700-
U.S. VIRGIN ISLANDS

CITY           SKY/WX    TMP DP  RH WIND       PRES   REMARKS
CHARLOTTE AMA  SUNNY     88  75  66 SE16G24   30.06S HX  97
CHRISTIANSTED  MOSUNNY   90  73  58 SE17      30.07F HX  98
$$

HOURLY WEATHER ROUNDUP FOR THE NEWS MEDIA

CITY           SKY/WX    TMP DP  RH WIND       PRES   REMARKS
ORLANDO        SUNNY     89  70  53 W7        30.02S HX  94
NEW YORK       MOSUNNY   82  63  52 NW7       29.88F
NEWARK         MOSUNNY   80  64  58 CALM      29.88F
CHICAGO        MOSUNNY   74  50  42 NW5       30.13F
HARTFORD       PTSUNNY   77  68  73 S9        29.86F
BOSTON         PTSUNNY   77  66  69 S9        29.85F
DALLAS         PTSUNNY   87  71  58 CALM      30.05F HX  93
PHILADELPHIA   MOSUNNY   81  60  48 NW8       29.90F
LOS ANGELES    MOSUNNY   73  63  70 CALM      29.93R HAZE
WASHINGTON DC  FAIR      77  58  51 NW9       29.96F




000
ASCA42 TJSJ 291610
RWRPR
PUERTO RICO/U.S. VIRGIN ISLANDS HOURLY WEATHER ROUNDUP
NATIONAL WEATHER SERVICE SAN JUAN PR
1200 PM AST WED JUN 29 2016

PRZ001-004-291700-
PUERTO RICO

CITY           SKY/WX    TMP DP  RH WIND       PRES   REMARKS
SAN JUAN LMM   LGT RAIN  88  75  66 E9G18     30.05F HX  97
AGUADILLA      LGT RAIN  84  73  70 E15G29    30.06S HX  91
$$

PRZ006-007-291700-
U.S. VIRGIN ISLANDS

CITY           SKY/WX    TMP DP  RH WIND       PRES   REMARKS
CHARLOTTE AMA  SUNNY     88  75  66 SE16G24   30.06S HX  97
CHRISTIANSTED  MOSUNNY   90  73  58 SE17      30.07F HX  98
$$

HOURLY WEATHER ROUNDUP FOR THE NEWS MEDIA

CITY           SKY/WX    TMP DP  RH WIND       PRES   REMARKS
ORLANDO        SUNNY     89  70  53 W7        30.02S HX  94
NEW YORK       MOSUNNY   82  63  52 NW7       29.88F
NEWARK         MOSUNNY   80  64  58 CALM      29.88F
CHICAGO        MOSUNNY   74  50  42 NW5       30.13F
HARTFORD       PTSUNNY   77  68  73 S9        29.86F
BOSTON         PTSUNNY   77  66  69 S9        29.85F
DALLAS         PTSUNNY   87  71  58 CALM      30.05F HX  93
PHILADELPHIA   MOSUNNY   81  60  48 NW8       29.90F
LOS ANGELES    MOSUNNY   73  63  70 CALM      29.93R HAZE
WASHINGTON DC  FAIR      77  58  51 NW9       29.96F




000
ASCA42 TJSJ 291510
RWRPR
PUERTO RICO/U.S. VIRGIN ISLANDS HOURLY WEATHER ROUNDUP
NATIONAL WEATHER SERVICE SAN JUAN PR
1100 AM AST WED JUN 29 2016

PRZ001-004-291600-
PUERTO RICO

CITY           SKY/WX    TMP DP  RH WIND       PRES   REMARKS
SAN JUAN LMM   MOSUNNY   88  73  62 E13G20    30.06S HX  96
AGUADILLA      PTSUNNY   86  73  66 E7        30.06F HX  93
$$

PRZ006-007-291600-
U.S. VIRGIN ISLANDS

CITY           SKY/WX    TMP DP  RH WIND       PRES   REMARKS
CHARLOTTE AMA  SUNNY     88  75  66 SE17G25   30.06S HX  97
CHRISTIANSTED  MOSUNNY   90  73  58 E16G25    30.08R HX  98
$$

HOURLY WEATHER ROUNDUP FOR THE NEWS MEDIA

CITY           SKY/WX    TMP DP  RH WIND       PRES   REMARKS
ORLANDO        MOSUNNY   87  72  60 W7        30.02S HX  93
NEW YORK       PTSUNNY   80  63  55 NW6       29.89S
NEWARK         PTSUNNY   77  66  68 VRB6      29.89S
CHICAGO        SUNNY     71  50  47 N7        30.14F
HARTFORD       CLOUDY    74  68  81 SW8       29.88F
BOSTON         CLOUDY    77  67  71 S10       29.86
DALLAS         PTSUNNY   85  70  60 NE6       30.06S
PHILADELPHIA   MOSUNNY   78  63  59 N8        29.91S
LOS ANGELES    MOSUNNY   70  63  78 CALM      29.92R HAZE
WASHINGTON DC  FAIR      77  59  53 NW8       29.97S




000
ASCA42 TJSJ 291410
RWRPR
PUERTO RICO/U.S. VIRGIN ISLANDS HOURLY WEATHER ROUNDUP
NATIONAL WEATHER SERVICE SAN JUAN PR
1000 AM AST WED JUN 29 2016

PRZ001-004-291500-
PUERTO RICO

CITY           SKY/WX    TMP DP  RH WIND       PRES   REMARKS
SAN JUAN LMM   MOSUNNY   82  77  83 E5        30.06R HX  91
AGUADILLA      MOSUNNY   84  73  70 E8        30.07R HX  91
$$

PRZ006-007-291500-
U.S. VIRGIN ISLANDS

CITY           SKY/WX    TMP DP  RH WIND       PRES   REMARKS
CHARLOTTE AMA  PTSUNNY   86  75  70 SE16      30.06S HX  95
CHRISTIANSTED  MOSUNNY   88  73  62 E21       30.07R HX  96
$$

HOURLY WEATHER ROUNDUP FOR THE NEWS MEDIA

CITY           SKY/WX    TMP DP  RH WIND       PRES   REMARKS
ORLANDO        SUNNY     83  76  79 S6        30.02R HX  91
NEW YORK       PTSUNNY   80  65  59 CALM      29.89S
NEWARK         CLOUDY    74  66  76 NW8       29.89S
CHICAGO        SUNNY     69  50  50 N7        30.15R
HARTFORD       CLOUDY    72  68  87 S10       29.89R
BOSTON         CLOUDY    75  68  78 S10       29.87F
DALLAS         MOSUNNY   83  72  69 SE7       30.06R
PHILADELPHIA   PTSUNNY   76  62  62 N8        29.91S
LOS ANGELES    CLOUDY    68  63  84 CALM      29.91S HAZE
WASHINGTON DC  FAIR      75  57  53 NW12      29.97S




000
ASCA42 TJSJ 291310
RWRPR
PUERTO RICO/U.S. VIRGIN ISLANDS HOURLY WEATHER ROUNDUP
NATIONAL WEATHER SERVICE SAN JUAN PR
900 AM AST WED JUN 29 2016

PRZ001-004-291400-
PUERTO RICO

CITY           SKY/WX    TMP DP  RH WIND       PRES   REMARKS
SAN JUAN LMM   MOSUNNY   82  77  83 E6        30.05S HX  91
AGUADILLA      SUNNY     82  72  69 E7        30.06R
$$

PRZ006-007-291400-
U.S. VIRGIN ISLANDS

CITY           SKY/WX    TMP DP  RH WIND       PRES   REMARKS
CHARLOTTE AMA  PTSUNNY   86  75  70 SE17      30.06R HX  95
CHRISTIANSTED  MOSUNNY   86  73  66 E18G24    30.06R HX  93
$$

HOURLY WEATHER ROUNDUP FOR THE NEWS MEDIA

CITY           SKY/WX    TMP DP  RH WIND       PRES   REMARKS
ORLANDO        MOSUNNY   80  75  84 S9        30.01R
NEW YORK       MOSUNNY   78  66  66 NE3       29.89S
NEWARK         PTSUNNY   73  66  78 N8        29.89S
CHICAGO        SUNNY     66  50  56 N7        30.14S
HARTFORD       CLOUDY    73  69  87 S8        29.88S
BOSTON         CLOUDY    72  68  88 S10       29.88R
DALLAS         MOSUNNY   80  72  76 E6        30.05R
PHILADELPHIA   MOSUNNY   74  64  71 NW9       29.91R
LOS ANGELES    CLOUDY    66  63  88 W6        29.91S FOG
WASHINGTON DC  FAIR      73  58  59 NW12      29.97R




000
ASCA42 TJSJ 291310
RWRPR
PUERTO RICO/U.S. VIRGIN ISLANDS HOURLY WEATHER ROUNDUP
NATIONAL WEATHER SERVICE SAN JUAN PR
900 AM AST WED JUN 29 2016

PRZ001-004-291400-
PUERTO RICO

CITY           SKY/WX    TMP DP  RH WIND       PRES   REMARKS
SAN JUAN LMM   MOSUNNY   82  77  83 E6        30.05S HX  91
AGUADILLA      SUNNY     82  72  69 E7        30.06R
$$

PRZ006-007-291400-
U.S. VIRGIN ISLANDS

CITY           SKY/WX    TMP DP  RH WIND       PRES   REMARKS
CHARLOTTE AMA  PTSUNNY   86  75  70 SE17      30.06R HX  95
CHRISTIANSTED  MOSUNNY   86  73  66 E18G24    30.06R HX  93
$$

HOURLY WEATHER ROUNDUP FOR THE NEWS MEDIA

CITY           SKY/WX    TMP DP  RH WIND       PRES   REMARKS
ORLANDO        MOSUNNY   80  75  84 S9        30.01R
NEW YORK       MOSUNNY   78  66  66 NE3       29.89S
NEWARK         PTSUNNY   73  66  78 N8        29.89S
CHICAGO        SUNNY     66  50  56 N7        30.14S
HARTFORD       CLOUDY    73  69  87 S8        29.88S
BOSTON         CLOUDY    72  68  88 S10       29.88R
DALLAS         MOSUNNY   80  72  76 E6        30.05R
PHILADELPHIA   MOSUNNY   74  64  71 NW9       29.91R
LOS ANGELES    CLOUDY    66  63  88 W6        29.91S FOG
WASHINGTON DC  FAIR      73  58  59 NW12      29.97R




000
ASCA42 TJSJ 291210
RWRPR
PUERTO RICO/U.S. VIRGIN ISLANDS HOURLY WEATHER ROUNDUP
NATIONAL WEATHER SERVICE SAN JUAN PR
800 AM AST WED JUN 29 2016

PRZ001-004-291300-
PUERTO RICO

CITY           SKY/WX    TMP DP  RH WIND       PRES   REMARKS
SAN JUAN LMM   LGT RAIN  81  77  89 SE5       30.05R
AGUADILLA      SUNNY     79  72  78 E7        30.05R
$$

PRZ006-007-291300-
U.S. VIRGIN ISLANDS

CITY           SKY/WX    TMP DP  RH WIND       PRES   REMARKS
CHARLOTTE AMA  SUNNY     84  75  74 SE18G24   30.05R HX  92
CHRISTIANSTED  MOSUNNY   84  73  70 E16G25    30.05S HX  91
$$

HOURLY WEATHER ROUNDUP FOR THE NEWS MEDIA

CITY           SKY/WX    TMP DP  RH WIND       PRES   REMARKS
ORLANDO        MOSUNNY   78  73  84 SW5       30.00R
NEW YORK       MOSUNNY   75  68  78 N5        29.89
NEWARK         MOSUNNY   72  66  81 N8        29.89R
CHICAGO        SUNNY     62  52  69 NW6       30.14R
HARTFORD       CLOUDY    70  68  93 SW8       29.89R
BOSTON         CLOUDY    72  67  84 S12       29.87
DALLAS         PTCLDY    76  70  82 CALM      30.04R
PHILADELPHIA   MOSUNNY   73  65  75 VRB6      29.90R
LOS ANGELES    CLOUDY    67  63  87 CALM      29.91S FOG
WASHINGTON DC  FAIR      71  60  68 NW8       29.96R




    US Dept of Commerce
    National Oceanic and Atmospheric Administration
    National Weather Service
    1325 East West Highway
    Silver Spring, MD 20910
    Page Author: NWS Internet Services Team
Disclaimer
Information Quality
Credits
Glossary
Privacy Policy
Freedom of Information Act (FOIA)
About Us
Career Opportunities